GW2742 Weather Reports


time (UTC)temp
F
wind
direction
speed
knots
gust
knots
rain 1hr
in
rain 24hr
in
rain mn
in
humidity
%
barometer
mb
20260906190049 77 347 1.7 5.2 0.00 0.00 0.00 50 1014.3
20260906185525 77 360 0.9 4.3 0.00 0.00 0.00 54 1014.5
20260906185025 77 349 0.9 4.3 0.00 0.00 0.00 59 1014.5
20260906184546 77 350 0.9 4.3 0.00 0.00 0.00 52 1014.6
20260906184027 76 253 0.0 4.3 0.00 0.00 0.00 51 1014.7
20260906183525 76 82 1.7 4.3 0.00 0.00 0.00 50 1014.9
20260906183058 76 65 1.7 3.5 0.00 0.00 0.00 52 1014.9
20260906182525 75 273 1.7 5.2 0.00 0.00 0.00 53 1015.1
20260906182026 75 77 2.6 5.2 0.00 0.00 0.00 52 1015.1
20260906181547 76 39 2.6 4.3 0.00 0.00 0.00 51 1015.2
20260906181024 75 13 0.9 4.3 0.00 0.00 0.00 53 1015.4
20260906180528 75 321 0.9 3.5 0.00 0.00 0.00 53 1015.5
20260906175530 74 294 0.9 4.3 0.00 0.00 0.00 56 1015.7
20260906175026 74 242 1.7 3.5 0.00 0.00 0.00 54 1015.7
20260906174609 74 359 0.9 3.5 0.00 0.00 0.00 57 1015.7
20260906174029 74 121 0.0 3.5 0.00 0.00 0.00 54 1015.8
20260906173526 74 99 0.9 3.5 0.00 0.00 0.00 53 1016.0
20260906173048 73 0 0.0 3.5 0.00 0.00 0.00 59 1016.1
20260906172530 73 0 0.9 4.3 0.00 0.00 0.00 54 1016.1
20260906172028 73 0 1.7 4.3 0.00 0.00 0.00 53 1016.2
20260906171604 72 31 0.9 4.3 0.00 0.00 0.00 56 1016.3
20260906171027 72 109 1.7 4.3 0.00 0.00 0.00 54 1016.4
20260906170525 72 32 0.9 4.3 0.00 0.00 0.00 55 1016.5
20260906170057 71 134 0.9 4.3 0.00 0.00 0.00 56 1016.4
20260906165526 70 0 0.9 4.3 0.00 0.00 0.00 56 1016.5
20260906165029 70 230 1.7 4.3 0.00 0.00 0.00 59 1016.4
20260906164554 70 0 0.9 4.3 0.00 0.00 0.00 59 1016.4
20260906164028 69 0 0.9 6.1 0.00 0.00 0.00 61 1016.6
20260906163525 69 177 1.7 6.1 0.00 0.00 0.00 59 1016.7
20260906163049 69 195 2.6 6.1 0.00 0.00 0.00 58 1016.9
20260906162524 69 160 1.7 4.3 0.00 0.00 0.00 59 1016.7
20260906162025 68 238 0.9 4.3 0.00 0.00 0.00 59 1016.9
20260906161609 68 205 2.6 4.3 0.00 0.00 0.00 59 1016.8
20260906161023 68 149 0.9 3.5 0.00 0.00 0.00 60 1016.9
20260906160525 68 113 0.9 3.5 0.00 0.00 0.00 59 1016.9
20260906160050 68 0 0.0 3.5 0.00 0.00 0.00 60 1017.0
20260906155528 68 58 0.9 3.5 0.00 0.00 0.00 60 1016.9
20260906155024 68 101 0.0 2.6 0.00 0.00 0.00 62 1016.8
20260906154548 67 101 0.9 2.6 0.00 0.00 0.00 60 1016.9
20260906154025 67 0 0.0 2.6 0.00 0.00 0.00 62 1017.2
20260906153525 67 165 0.0 2.6 0.00 0.00 0.00 61 1017.1
20260906153105 67 147 0.9 2.6 0.00 0.00 0.00 63 1017.0
20260906152526 66 182 0.0 1.7 0.00 0.00 0.00 63 1017.0
20260906152024 65 0 0.0 1.7 0.00 0.00 0.00 64 1017.1
20260906151544 64 0 0.0 1.7 0.00 0.00 0.00 67 1017.2
20260906151024 64 0 0.0 2.6 0.00 0.00 0.00 66 1017.3
20260906150524 63 207 0.0 2.6 0.00 0.00 0.00 68 1017.3
20260906150051 63 0 0.0 2.6 0.00 0.00 0.00 69 1017.4
20260906145525 62 196 0.9 2.6 0.00 0.00 0.00 70 1017.6
20260906145025 62 187 0.9 3.5 0.00 0.00 0.00 70 1017.6
20260906144550 61 207 0.9 3.5 0.00 0.00 0.00 70 1017.6
20260906144024 61 231 0.9 3.5 0.00 0.00 0.00 70 1017.6
20260906143524 61 182 0.9 3.5 0.00 0.00 0.00 72 1017.7
20260906143045 60 199 1.7 3.5 0.00 0.00 0.00 70 1017.7
20260906142523 60 217 0.9 1.7 0.00 0.00 0.00 72 1017.6
20260906142025 60 217 0.9 2.6 0.00 0.00 0.00 72 1017.5
20260906141558 59 217 0.9 2.6 0.00 0.00 0.00 73 1017.4
20260906141024 59 217 0.9 1.7 0.00 0.00 0.00 74 1017.5
20260906140523 58 218 0.0 1.7 0.00 0.00 0.00 76 1017.5
20260906140042 57 0 0.0 1.7 0.00 0.00 0.00 78 1017.4
20260906135525 57 0 0.0 1.7 0.00 0.00 0.00 78 1017.5
20260906135024 56 218 0.0 1.7 0.00 0.00 0.00 79 1017.4
20260906134548 55 0 0.0 0.0 0.00 0.00 0.00 81 1017.4
20260906134024 54 0 0.0 1.7 0.00 0.00 0.00 82 1017.6
20260906133525 54 0 0.0 1.7 0.00 0.00 0.00 82 1017.5
20260906133051 53 218 0.0 1.7 0.00 0.00 0.00 81 1017.4
20260906132526 53 0 0.0 0.9 0.00 0.00 0.00 81 1017.5
20260906132027 53 0 0.0 0.9 0.00 0.00 0.00 80 1017.5
20260906131605 53 0 0.0 1.7 0.00 0.00 0.00 80 1017.4
20260906131025 53 0 0.0 1.7 0.00 0.00 0.00 80 1017.2
20260906130525 53 0 0.0 1.7 0.00 0.00 0.00 79 1017.2
20260906130054 54 0 0.0 0.0 0.00 0.00 0.00 79 1017.3
20260906125524 54 0 0.0 2.6 0.00 0.00 0.00 78 1017.4
20260906125027 54 0 0.0 2.6 0.00 0.00 0.00 78 1017.4
20260906124551 54 215 0.9 2.6 0.00 0.00 0.00 78 1017.5
20260906124027 54 215 0.9 2.6 0.00 0.00 0.00 78 1017.2
20260906123524 55 215 0.9 2.6 0.00 0.00 0.00 78 1017.3
20260906123045 55 216 0.0 1.7 0.00 0.00 0.00 77 1017.1
20260906122528 55 0 0.0 1.7 0.00 0.00 0.00 77 1017.1
20260906122025 55 216 0.9 1.7 0.00 0.00 0.00 77 1017.1
20260906121544 55 216 0.0 1.7 0.00 0.00 0.00 76 1017.1
20260906121029 55 0 0.0 1.7 0.00 0.00 0.00 76 1017.1
20260906120527 56 0 0.0 1.7 0.00 0.00 0.00 75 1017.0
20260906120051 56 215 0.0 1.7 0.00 0.00 0.00 75 1017.0
20260906115527 56 0 0.0 0.0 0.00 0.00 0.00 75 1017.1
20260906115025 56 0 0.0 0.0 0.00 0.00 0.00 74 1017.0
20260906114550 56 0 0.0 0.0 0.00 0.00 0.00 74 1017.2
20260906114027 57 0 0.0 0.0 0.00 0.00 0.00 73 1016.9
20260906113527 57 0 0.0 0.0 0.00 0.00 0.00 72 1017.0
20260906113047 57 0 0.0 0.0 0.00 0.00 0.00 72 1017.1
20260906112528 57 0 0.0 0.0 0.00 0.00 0.00 72 1017.1
20260906112025 57 0 0.0 0.0 0.00 0.00 0.00 71 1017.0
20260906111546 58 0 0.0 0.0 0.00 0.00 0.00 70 1016.9
20260906111027 58 0 0.0 0.0 0.00 0.00 0.00 70 1017.0
20260906110527 58 0 0.0 0.0 0.00 0.00 0.00 69 1016.9
20260906110049 58 0 0.0 1.7 0.00 0.00 0.00 69 1017.1
20260906105524 59 0 0.0 2.6 0.00 0.00 0.00 69 1017.2
20260906105024 59 0 0.9 2.6 0.00 0.00 0.00 69 1017.0
20260906104550 59 242 1.7 2.6 0.00 0.00 0.00 68 1017.0
20260906104028 59 0 0.0 2.6 0.00 0.00 0.00 67 1016.8
20260906103525 59 0 0.0 2.6 0.00 0.00 0.00 67 1016.9
20260906103048 60 211 0.9 3.5 0.00 0.00 0.00 67 1016.9
20260906102528 59 206 0.9 3.5 0.00 0.00 0.00 67 1016.9
20260906102027 60 211 0.9 2.6 0.00 0.00 0.00 67 1016.7
20260906101544 60 0 0.9 2.6 0.00 0.00 0.00 65 1016.7
20260906101025 60 129 0.9 2.6 0.00 0.00 0.00 65 1016.7
20260906100528 60 128 0.9 2.6 0.00 0.00 0.00 66 1016.6
20260906100051 60 124 0.9 2.6 0.00 0.00 0.00 67 1016.4
20260906095527 60 0 0.0 2.6 0.00 0.00 0.00 66 1016.4
20260906095027 60 328 0.0 2.6 0.00 0.00 0.00 67 1016.4
20260906094556 60 146 0.0 2.6 0.00 0.00 0.00 67 1016.4
20260906094028 60 150 0.9 2.6 0.00 0.00 0.00 67 1016.4
20260906093529 60 0 0.0 3.5 0.00 0.00 0.00 68 1016.4
20260906093048 60 0 0.0 3.5 0.00 0.00 0.00 68 1016.4
20260906092531 60 0 0.9 2.6 0.00 0.00 0.00 67 1016.3
20260906092024 60 339 0.0 1.7 0.00 0.00 0.00 67 1016.3
20260906091551 59 0 0.0 3.5 0.00 0.00 0.00 68 1016.4
20260906091027 59 0 0.9 3.5 0.00 0.00 0.00 68 1016.5
20260906090525 59 210 1.7 3.5 0.00 0.00 0.00 68 1016.7
20260906090053 59 209 1.7 3.5 0.00 0.00 0.00 69 1016.7
20260906085528 60 204 0.9 3.5 0.00 0.00 0.00 68 1016.6
20260906085025 60 199 1.7 3.5 0.00 0.00 0.00 65 1016.5
20260906084545 61 162 0.9 2.6 0.00 0.00 0.00 64 1016.4
20260906084034 60 0 0.9 2.6 0.00 0.00 0.00 65 1016.4
20260906083527 60 122 0.9 3.5 0.00 0.00 0.00 66 1016.1
20260906083053 59 134 0.0 3.5 0.00 0.00 0.00 66 1016.0
20260906082528 59 203 0.0 2.6 0.00 0.00 0.00 66 1016.0
20260906082025 59 134 0.0 1.7 0.00 0.00 0.00 66 1016.0
20260906081547 60 133 0.0 1.7 0.00 0.00 0.00 64 1016.0
20260906081027 60 0 0.9 3.5 0.00 0.00 0.00 64 1016.1
20260906080526 61 156 0.9 3.5 0.00 0.00 0.00 63 1016.0
20260906080048 61 156 1.7 3.5 0.00 0.00 0.00 62 1016.0
20260906075525 61 198 1.7 2.6 0.00 0.00 0.00 62 1016.0
20260906075024 61 188 0.0 1.7 0.00 0.00 0.00 62 1016.2
20260906074546 61 0 0.0 1.7 0.00 0.00 0.00 62 1015.9
20260906074027 61 193 0.0 2.6 0.00 0.00 0.00 63 1016.1
20260906073528 62 0 0.0 3.5 0.00 0.00 0.00 62 1016.1
20260906073052 62 234 0.9 5.2 0.00 0.00 0.00 61 1016.1
20260906072531 62 236 1.7 5.2 0.00 0.00 0.00 60 1016.1
20260906072027 61 260 0.0 3.5 0.00 0.00 0.00 60 1016.0
20260906071548 61 261 0.9 3.5 0.00 0.00 0.00 60 1016.1
20260906071025 61 221 0.9 2.6 0.00 0.00 0.00 61 1016.2
20260906070528 62 206 0.0 2.6 0.00 0.00 0.00 60 1016.0
20260906070045 62 205 0.9 2.6 0.00 0.00 0.00 59 1015.9
20260906065525 62 196 0.9 2.6 0.00 0.00 0.00 59 1015.8
20260906065025 63 197 0.9 2.6 0.00 0.00 0.00 59 1015.8
20260906064549 63 184 0.9 3.5 0.00 0.00 0.00 58 1016.0
20260906064023 63 234 0.9 3.5 0.00 0.00 0.00 58 1016.0
20260906063523 63 221 0.9 2.6 0.00 0.00 0.00 57 1015.8
20260906063050 63 229 0.0 1.7 0.00 0.00 0.00 57 1015.8
20260906062527 64 0 0.9 2.6 0.00 0.00 0.00 56 1015.8
20260906062024 64 207 0.0 2.6 0.00 0.00 0.00 56 1015.8
20260906061549 64 207 0.0 4.3 0.00 0.00 0.00 55 1015.8
20260906061025 65 0 0.0 4.3 0.00 0.00 0.00 55 1016.1
20260906060524 66 138 0.0 2.6 0.00 0.00 0.00 54 1015.8
20260906060054 66 143 0.0 2.6 0.00 0.00 0.00 53 1015.8
20260906055523 67 143 0.9 2.6 0.00 0.00 0.00 51 1015.8
20260906055024 67 340 0.0 4.3 0.00 0.00 0.00 51 1015.7
20260906054546 68 0 1.7 4.3 0.00 0.00 0.00 50 1015.7
20260906054025 68 337 0.9 7.8 0.00 0.00 0.00 50 1015.8
20260906053524 68 335 1.7 7.8 0.00 0.00 0.00 50 1015.7
20260906053043 67 293 2.6 6.1 0.00 0.00 0.00 50 1015.7
20260906052524 67 337 1.7 6.1 0.00 0.00 0.00 51 1015.7
20260906052026 67 264 1.7 5.2 0.00 0.00 0.00 51 1015.7
20260906051543 66 360 0.0 2.6 0.00 0.00 0.00 51 1015.7
20260906051025 66 106 0.0 4.3 0.00 0.00 0.00 51 1015.8
20260906050527 66 359 0.0 4.3 0.00 0.00 0.00 51 1015.8
20260906050045 66 342 0.9 3.5 0.00 0.00 0.00 52 1015.8
20260906045524 66 174 0.9 3.5 0.00 0.00 0.00 51 1015.9
20260906045024 66 152 1.7 3.5 0.00 0.00 0.00 52 1015.8
20260906044550 66 160 1.7 4.3 0.00 0.00 0.00 52 1015.7
20260906044024 67 174 1.7 4.3 0.00 0.00 0.00 53 1015.7
20260906043529 67 153 1.7 3.5 0.00 0.00 0.00 51 1015.8
20260906043044 66 68 0.9 3.5 0.00 0.00 0.00 52 1015.7
20260906042525 67 0 0.0 2.6 0.00 0.00 0.00 52 1015.6
20260906042025 67 191 0.0 1.7 0.00 0.00 0.00 51 1015.5
20260906041544 67 0 0.0 2.6 0.00 0.00 0.00 51 1015.6
20260906041023 68 166 0.9 5.2 0.00 0.00 0.00 50 1015.5
20260906040523 68 166 2.6 5.2 0.00 0.00 0.00 50 1015.6
20260906040048 68 148 1.7 2.6 0.00 0.00 0.00 49 1015.5
20260906035526 68 0 0.0 2.6 0.00 0.00 0.00 48 1015.4
20260906035025 67 183 0.9 2.6 0.00 0.00 0.00 48 1015.4
20260906034558 68 259 0.0 3.5 0.00 0.00 0.00 50 1015.5
20260906034024 68 262 0.0 3.5 0.00 0.00 0.00 49 1015.5
20260906033524 69 164 1.7 3.5 0.00 0.00 0.00 47 1015.5
20260906033045 69 0 0.0 2.6 0.00 0.00 0.00 47 1015.4
20260906032527 70 0 0.9 2.6 0.00 0.00 0.00 47 1015.4
20260906032024 70 124 0.9 2.6 0.00 0.00 0.00 47 1015.4
20260906031553 70 124 0.9 2.6 0.00 0.00 0.00 45 1015.2
20260906031027 70 0 0.0 3.5 0.00 0.00 0.00 44 1015.1
20260906030527 70 125 0.0 4.3 0.00 0.00 0.00 44 1015.1
20260906030052 70 101 1.7 4.3 0.00 0.00 0.00 44 1015.0
20260906025528 70 115 0.0 2.6 0.00 0.00 0.00 44 1014.8
20260906025027 70 110 0.9 2.6 0.00 0.00 0.00 45 1014.7
20260906024547 71 219 0.9 3.5 0.00 0.00 0.00 45 1014.7
20260906024027 71 0 0.0 3.5 0.00 0.00 0.00 45 1014.5
20260906023528 71 0 0.9 3.5 0.00 0.00 0.00 45 1014.6
20260906023046 71 0 0.0 2.6 0.00 0.00 0.00 45 1014.5
20260906022523 72 238 0.0 4.3 0.00 0.00 0.00 44 1014.6
20260906022025 72 292 0.9 4.3 0.00 0.00 0.00 43 1014.6
20260906021600 72 0 0.9 2.6 0.00 0.00 0.00 43 1014.4
20260906021025 72 245 0.0 2.6 0.00 0.00 0.00 43 1014.3
20260906020527 73 178 0.0 3.5 0.00 0.00 0.00 43 1014.3
20260906020048 73 178 0.9 3.5 0.00 0.00 0.00 42 1014.5
20260906015524 73 282 0.9 3.5 0.00 0.00 0.00 42 1014.3
20260906015027 74 0 0.9 3.5 0.00 0.00 0.00 42 1014.3
20260906014549 74 239 0.0 1.7 0.00 0.00 0.00 42 1014.4
20260906014025 75 134 0.0 1.7 0.00 0.00 0.00 41 1014.4
20260906013524 75 0 0.0 1.7 0.00 0.00 0.00 41 1014.3
20260906013049 76 0 0.0 1.7 0.00 0.00 0.00 41 1014.3
20260906012529 77 0 0.0 1.7 0.00 0.00 0.00 39 1014.4
20260906012026 77 6 0.0 5.2 0.00 0.00 0.00 39 1014.3
20260906011546 78 0 0.9 5.2 0.00 0.00 0.00 39 1014.3
20260906011023 78 0 0.0 1.7 0.00 0.00 0.00 39 1014.4
20260906010525 79 358 0.0 1.7 0.00 0.00 0.00 36 1014.3
20260906010059 79 0 0.0 3.5 0.00 0.00 0.00 38 1014.3
20260906005524 79 0 0.0 4.3 0.00 0.00 0.00 37 1014.2
20260906005024 79 278 0.0 4.3 0.00 0.00 0.00 37 1014.2
20260906004611 79 0 1.7 5.2 0.00 0.00 0.00 37 1014.2
20260906004029 80 329 1.7 5.2 0.00 0.00 0.00 35 1014.3
20260906003528 80 1 1.7 5.2 0.00 0.00 0.00 35 1014.2
20260906003047 80 307 1.7 5.2 0.00 0.00 0.00 35 1014.2
20260906002528 80 349 1.7 5.2 0.00 0.00 0.00 34 1014.2
20260906002024 81 339 0.9 5.2 0.00 0.00 0.00 37 1014.2
20260906001559 81 336 2.6 5.2 0.00 0.00 0.00 35 1014.2
20260906001023 81 345 2.6 4.3 0.00 0.00 0.00 35 1014.2
20260906000527 82 320 1.7 4.3 0.00 0.00 0.00 33 1014.3
20260906000044 83 319 1.7 4.3 0.00 0.00 0.00 34 1014.3
20260905235524 83 0 1.7 4.3 0.00 0.00 0.00 34 1014.3
20260905235025 83 44 0.9 4.3 0.00 0.00 0.00 31 1014.3
20260905234552 84 331 1.7 4.3 0.00 0.00 0.00 34 1014.4
20260905234027 84 31 0.9 3.5 0.00 0.00 0.00 32 1014.4
20260905233528 84 0 0.9 2.6 0.00 0.00 0.00 30 1014.4
20260905233044 85 291 0.9 2.6 0.00 0.00 0.00 30 1014.4
20260905232530 85 0 0.0 1.7 0.00 0.00 0.00 32 1014.4
20260905232026 85 0 0.0 3.5 0.00 0.00 0.00 36 1014.4
20260905231544 84 127 0.0 3.5 0.00 0.00 0.00 28 1014.5
20260905231028 85 113 0.9 2.6 0.00 0.00 0.00 30 1014.5
20260905230524 85 0 0.9 2.6 0.00 0.00 0.00 31 1014.5
20260905230052 84 0 0.0 1.7 0.00 0.00 0.00 35 1014.6
20260905225535 84 0 0.0 2.6 0.00 0.00 0.00 28 1014.6
20260905225027 84 0 0.0 2.6 0.00 0.00 0.00 34 1014.7
20260905224543 84 308 0.9 3.5 0.00 0.00 0.00 30 1014.9
20260905224025 83 0 0.0 4.3 0.00 0.00 0.00 31 1014.9
20260905223524 83 121 1.7 4.3 0.00 0.00 0.00 31 1014.9
20260905223050 83 57 0.0 4.3 0.00 0.00 0.00 31 1015.0
20260905222523 83 160 0.9 4.3 0.00 0.00 0.00 33 1015.1
20260905222026 83 75 0.9 4.3 0.00 0.00 0.00 37 1015.1
20260905221544 83 21 1.7 3.5 0.00 0.00 0.00 30 1015.2
20260905221025 83 60 1.7 3.5 0.00 0.00 0.00 31 1015.1
20260905220524 83 46 0.0 3.5 0.00 0.00 0.00 30 1015.3
20260905220045 83 68 1.7 3.5 0.00 0.00 0.00 30 1015.3
20260905215524 82 0 0.0 4.3 0.00 0.00 0.00 30 1015.2
20260905215023 82 119 1.7 4.3 0.00 0.00 0.00 31 1015.4
20260905214550 82 79 1.7 5.2 0.00 0.00 0.00 29 1015.5
20260905214027 82 94 1.7 5.2 0.00 0.00 0.00 33 1015.5
20260905213528 82 263 0.0 4.3 0.00 0.00 0.00 35 1015.5
20260905213048 82 32 0.9 4.3 0.00 0.00 0.00 32 1015.6
20260905212526 81 0 1.7 4.3 0.00 0.00 0.00 33 1015.7
20260905212025 81 92 1.7 4.3 0.00 0.00 0.00 32 1015.7
20260905211547 81 134 1.7 6.1 0.00 0.00 0.00 31 1015.6
20260905211026 81 97 1.7 6.1 0.00 0.00 0.00 31 1015.7
20260905210526 81 79 2.6 5.2 0.00 0.00 0.00 35 1015.8
20260905210110 81 74 1.7 6.1 0.00 0.00 0.00 35 1015.7
20260905205523 81 113 2.6 6.1 0.00 0.00 0.00 33 1015.8
20260905205024 80 115 2.6 5.2 0.00 0.00 0.00 31 1015.8
20260905204547 81 72 2.6 5.2 0.00 0.00 0.00 32 1015.9
20260905204026 81 134 1.7 5.2 0.00 0.00 0.00 34 1015.9
20260905203529 80 53 1.7 5.2 0.00 0.00 0.00 32 1015.9
20260905203046 80 150 1.7 3.5 0.00 0.00 0.00 36 1015.9
20260905202525 80 304 0.9 4.3 0.00 0.00 0.00 32 1016.0
20260905202025 80 324 0.9 4.3 0.00 0.00 0.00 39 1015.9
20260905201544 80 148 0.9 3.5 0.00 0.00 0.00 33 1016.0
20260905201023 80 217 0.9 3.5 0.00 0.00 0.00 33 1016.1
20260905200523 79 0 0.9 4.3 0.00 0.00 0.00 33 1016.2
20260905200109 79 255 0.9 5.2 0.00 0.00 0.00 34 1016.2
20260905195523 79 322 1.7 5.2 0.00 0.00 0.00 33 1016.2
20260905195024 79 94 1.7 6.1 0.00 0.00 0.00 35 1016.2
20260905194552 79 291 0.9 6.1 0.00 0.00 0.00 34 1016.3
20260905194024 79 63 0.9 5.2 0.00 0.00 0.00 41 1016.3
20260905193525 79 58 0.0 3.5 0.00 0.00 0.00 34 1016.3
20260905193045 78 207 0.9 3.5 0.00 0.00 0.00 39 1016.3
20260905192524 78 53 0.9 3.5 0.00 0.00 0.00 34 1016.5
20260905192025 78 330 0.9 7.0 0.00 0.00 0.00 41 1016.5
20260905191543 78 320 0.9 7.0 0.00 0.00 0.00 34 1016.6
20260905191026 78 57 1.7 6.1 0.00 0.00 0.00 38 1016.6
20260905190525 77 32 0.0 4.3 0.00 0.00 0.00 34 1016.5